Location: Balaclava NSW 2575, Australia
(34.4510°S, 150.4953°E)
Time: 01:10:29
(UTC+10:00)

Tiros 1 - All Passes

Search period start: 23 June 2021 00:00
Search period end: 03 July 2021 00:00
Orbit: 630 x 664 km, 48.4° (Epoch: 21 June)

Date Brightness Start Highest point End Pass type
(mag) Time Alt. Az. Time Alt. Az. Time Alt. Az.
23 Jun - 00:35:28 10° SSW 00:38:24 16° S 00:41:19 10° SE night (unlit)
23 Jun - 02:17:23 10° SW 02:21:44 34° SSE 02:26:01 10° E night (unlit)
23 Jun - 03:59:29 10° WSW 04:04:02 47° NW 04:08:31 10° NNE visible
23 Jun - 19:50:33 10° NW 19:55:21 69° NE 20:00:11 10° ESE visible
23 Jun - 21:33:43 10° W 21:37:53 28° SSW 21:42:03 10° SE night (unlit)
23 Jun - 23:18:32 10° SW 23:21:22 15° S 23:24:10 10° SSE night (unlit)
24 Jun - 01:01:25 10° SSW 01:05:01 20° SSE 01:08:34 10° ESE night (unlit)
24 Jun - 02:43:09 10° SW 02:47:54 67° SE 02:52:33 10° ENE night (unlit)
24 Jun - 04:26:22 10° W 04:29:41 19° NW 04:32:59 10° N visible
24 Jun - 18:35:23 10° N 18:39:22 26° NE 18:43:23 10° ESE visible
24 Jun - 20:16:36 10° WNW 20:21:21 54° SSW 20:26:06 10° SE visible
24 Jun - 22:00:56 10° WSW 22:04:23 19° SSW 22:07:48 10° SSE night (unlit)
24 Jun - 23:45:10 10° SSW 23:48:04 16° S 23:50:58 10° SE night (unlit)
25 Jun - 01:27:09 10° SW 01:31:27 32° SSE 01:35:41 10° E night (unlit)
25 Jun - 03:09:12 10° WSW 03:13:49 53° NW 03:18:21 10° NNE night (unlit)
25 Jun - 19:00:20 10° NW 19:05:06 63° NE 19:09:54 10° ESE visible
25 Jun - 20:43:20 10° W 20:47:35 30° SSW 20:51:50 10° SE visible
25 Jun - 22:28:09 10° SW 22:31:02 15° S 22:33:53 10° SSE night (unlit)
26 Jun - 00:11:10 10° SSW 00:14:42 20° SSE 00:18:12 10° ESE night (unlit)
26 Jun - 01:52:54 10° SW 01:57:39 62° SE 02:02:18 10° ENE night (unlit)
26 Jun - 03:35:56 10° W 03:39:30 21° NW 03:43:01 10° N night (unlit)
26 Jun - 17:45:20 10° N 17:49:09 24° NE 17:53:00 10° ESE visible
26 Jun - 19:26:18 10° WNW 19:31:04 59° SW 19:35:53 10° SE visible
26 Jun - 21:10:31 10° WSW 21:14:04 20° SSW 21:17:35 10° SSE night (unlit)
26 Jun - 22:54:51 10° SSW 22:57:44 15° S 23:00:36 10° SE night (unlit)
27 Jun - 00:36:54 10° SW 00:41:09 30° SSE 00:45:21 10° E night (unlit)
27 Jun - 02:18:54 10° WSW 02:23:35 58° NW 02:28:11 10° NE night (unlit)
27 Jun - 18:10:08 10° NW 18:14:52 57° NE 18:19:37 10° ESE visible
27 Jun - 19:52:57 10° W 19:57:17 31° SSW 20:01:37 10° SE visible
27 Jun - 21:37:46 10° SW 21:40:41 16° S 21:43:36 10° SSE night (unlit)
27 Jun - 23:20:55 10° SSW 23:24:23 19° SSE 23:27:49 10° ESE night (unlit)
28 Jun - 01:02:39 10° SW 01:07:23 57° SE 01:12:02 10° ENE night (unlit)
28 Jun - 02:45:31 10° WSW 02:49:18 24° NW 02:53:01 10° N night (unlit)
28 Jun - 16:55:17 10° N 16:58:56 21° NE 17:02:35 10° E daylight
28 Jun - 18:36:00 10° WNW 18:40:48 64° SW 18:45:37 10° SE visible
28 Jun - 20:20:06 10° WSW 20:23:44 20° SSW 20:27:21 10° SSE visible
28 Jun - 22:04:32 10° SSW 22:07:24 15° S 22:10:15 10° SE night (unlit)
28 Jun - 23:46:40 10° SW 23:50:52 29° SSE 23:55:00 10° E night (unlit)
29 Jun - 01:28:37 10° WSW 01:33:21 64° NW 01:38:00 10° NE night (unlit)
29 Jun - 17:19:56 10° NNW 17:24:37 52° NE 17:29:20 10° ESE visible
29 Jun - 19:02:35 10° W 19:06:59 33° SSW 19:11:23 10° SE visible
29 Jun - 20:47:22 10° SW 20:50:21 16° S 20:53:20 10° SSE visible
29 Jun - 22:30:39 10° SSW 22:34:04 19° SSE 22:37:27 10° ESE night (unlit)
30 Jun - 00:12:24 10° SW 00:17:07 53° SSE 00:21:45 10° ENE night (unlit)
30 Jun - 01:55:07 10° WSW 01:59:05 26° NW 02:02:58 10° N night (unlit)
30 Jun - 16:05:17 10° N 16:08:42 19° NE 16:12:09 10° E daylight
30 Jun - 17:45:42 10° WNW 17:50:31 70° SW 17:55:24 10° SE visible
30 Jun - 19:29:42 10° WSW 19:33:24 21° SSW 19:37:07 10° SSE visible
30 Jun - 21:14:12 10° SSW 21:17:04 15° S 21:19:55 10° SE night (unlit)
30 Jun - 22:56:26 10° SW 23:00:34 27° SSE 23:04:39 10° E night (unlit)
01 Jul - 00:38:19 10° SW 00:43:07 71° NW 00:47:48 10° NE night (unlit)
01 Jul - 16:29:45 10° NNW 16:34:22 47° NE 16:39:02 10° ESE daylight
01 Jul - 18:12:14 10° W 18:16:41 35° SSW 18:21:10 10° SE visible
01 Jul - 19:56:57 10° SW 20:00:00 16° S 20:03:04 10° SSE visible
01 Jul - 21:40:23 10° SSW 21:43:44 18° SSE 21:47:04 10° ESE night (unlit)
01 Jul - 23:22:09 10° SW 23:26:50 49° SSE 23:31:27 10° ENE night (unlit)
02 Jul - 01:04:45 10° WSW 01:08:52 29° NW 01:12:55 10° NNE night (unlit)
02 Jul - 15:15:20 10° N 15:18:30 18° NE 15:21:41 10° E daylight
02 Jul - 16:55:25 10° WNW 17:00:16 76° SW 17:05:08 10° SE daylight
02 Jul - 18:39:17 10° WSW 18:43:05 22° SSW 18:46:53 10° SSE visible
02 Jul - 20:23:51 10° SW 20:26:43 15° S 20:29:34 10° SE visible
02 Jul - 22:06:11 10° SW 22:10:15 26° SSE 22:14:17 10° E night (unlit)
02 Jul - 23:48:03 10° SW 23:52:52 78° NW 23:57:36 10° NE night (unlit)
